Facebook Twitter

Wetterstation Bückeburg

Messwerte
  Temperatur Wetter Niederschlag Luftdruck Wind
So, 04:00 Uhr 16° - - 1014.2 hPa 7 km/h S
So, 03:20 Uhr 16° - - 1014 hPa 11 km/h S
So, 03:00 Uhr 16° - - 1014.4 hPa 22 km/h S
So, 02:20 Uhr 17° - - 1014 hPa 23 km/h S
So, 02:00 Uhr 17° - - 1015.1 hPa 22 km/h S
So, 01:20 Uhr 17° - - 1015 hPa 13 km/h SO
So, 01:00 Uhr 17° - - 1015.5 hPa 25 km/h S
So, 00:20 Uhr 17° - - 1015 hPa 24 km/h S
So, 00:00 Uhr 17° - - 1016 hPa 22 km/h S
Sa, 23:20 Uhr 16° - - 1016 hPa 13 km/h S
Sa, 23:00 Uhr 16° - - 1016.8 hPa 11 km/h SO
Sa, 22:20 Uhr 13° - - 1016 hPa 3 km/h
Sa, 22:00 Uhr 14° - - 1017 hPa 4 km/h N
Sa, 21:20 Uhr 15° - - 1017 hPa 2 km/h S
Sa, 21:00 Uhr 16° - - 1017.2 hPa 7 km/h O
Sa, 20:20 Uhr 17° - - 1017 hPa 11 km/h O
Sa, 20:00 Uhr 19° - 0 mm 1017.5 hPa 7 km/h O
Sa, 19:20 Uhr 20° - - 1017 hPa 10 km/h O
Sa, 19:00 Uhr 21° - - 1017.6 hPa 11 km/h O
Sa, 18:20 Uhr 22° - - 1018 hPa 13 km/h O

Alle Zeitangaben MESZ